Language: 


Des rapports , des résumés tant et plus, au choix de chacun....


Données Historiques de Météogheer
Journalier Rapport pour Mars 10, 2018 Unitée:  Métrique    Impériale   Les deux
Suivant Jour »
Journalier Hebdomadaire Mensuel Annuel Sur mesure
  Max: Min: Moyenne:
Température: 14.4 °C 9.3 °C 11.8 °C
Point de rosée: 14.0 °C 9.0 °C 11.3 °C
Humidité: 98% 81% 95%
Vent: 16.9km/h 0.0km/h 5km/h
Rafales: 24.5km/h - -
Vent- - South
Pression: 997.9 hPa 996.2 hPa -
Pluie: 2.5 mm    
Historical Graphs
 
 
Données tabulaires pour Mars 10, 2018
Heure Température Point de rosée Pression Vent Vent Rafales Humidité Pluie Taux (Horaire) Conditions
00:00 9.9 °C 10.0 °C 997.9 hPa Calm   6.4 km/h 98% 0.3 mm
00:10 9.9 °C 10.0 °C 997.9 hPa SSE 12.6 km/h 12.6 km/h 98% 0.3 mm
00:20 10.0 °C 10.0 °C 997.9 hPa South 7.9 km/h 12.6 km/h 98% 0.0 mm
00:30 9.9 °C 10.0 °C 997.9 hPa Calm   10.5 km/h 98% 0.0 mm
00:40 9.9 °C 10.0 °C 997.9 hPa Calm   6.9 km/h 98% 0.0 mm
00:50 9.7 °C 10.0 °C 997.9 hPa Calm     98% 0.0 mm
01:00 9.6 °C 10.0 °C 997.9 hPa Calm   9.7 km/h 98% 0.0 mm
01:10 9.7 °C 10.0 °C 997.9 hPa Calm   9.0 km/h 98% 0.0 mm
01:20 9.6 °C 10.0 °C 997.9 hPa Calm   9.7 km/h 98% 0.0 mm
01:30 9.6 °C 10.0 °C 997.9 hPa SSW 7.9 km/h 11.6 km/h 98% 0.0 mm
01:40 9.6 °C 10.0 °C 997.9 hPa SSW 9.7 km/h 10.1 km/h 98% 0.0 mm
01:50 9.6 °C 10.0 °C 997.9 hPa South 6.9 km/h 9.7 km/h 98% 0.0 mm
02:00 9.4 °C 9.0 °C 997.9 hPa South 10.1 km/h 10.1 km/h 98% 0.0 mm
02:10 9.3 °C 9.0 °C 997.9 hPa Calm   10.1 km/h 98% 0.0 mm
02:20 9.4 °C 9.0 °C 996.8 hPa Calm   5.8 km/h 98% 0.0 mm
02:30 9.4 °C 9.0 °C 996.8 hPa Calm   5.8 km/h 98% 0.0 mm
02:40 9.4 °C 9.0 °C 996.8 hPa SSE 1.8 km/h 4.3 km/h 98% 0.0 mm
02:50 9.4 °C 9.0 °C 996.8 hPa Calm   1.8 km/h 98% 0.0 mm
03:00 9.4 °C 9.0 °C 996.8 hPa Calm     98% 0.0 mm
03:10 9.4 °C 9.0 °C 996.8 hPa Calm     98% 0.0 mm
03:20 9.5 °C 10.0 °C 996.8 hPa Calm     98% 0.0 mm
03:30 9.6 °C 10.0 °C 996.8 hPa SSW 4.7 km/h 4.7 km/h 98% 0.0 mm
03:40 9.8 °C 10.0 °C 996.8 hPa Calm   5.5 km/h 98% 0.0 mm
03:50 9.9 °C 10.0 °C 996.8 hPa Calm   1.8 km/h 98% 0.0 mm
04:00 9.9 °C 10.0 °C 996.8 hPa Calm     98% 0.0 mm
04:10 9.8 °C 10.0 °C 996.8 hPa SSW 3.2 km/h 3.2 km/h 98% 0.0 mm
04:20 9.7 °C 10.0 °C 996.2 hPa Calm   3.2 km/h 98% 0.0 mm
04:30 9.8 °C 10.0 °C 996.8 hPa SSW 1.4 km/h 4.0 km/h 98% 0.0 mm
04:40 9.9 °C 10.0 °C 996.8 hPa Calm   6.9 km/h 98% 0.0 mm
04:50 10.0 °C 10.0 °C 996.2 hPa Calm   3.2 km/h 98% 0.0 mm
05:00 9.9 °C 10.0 °C 996.8 hPa Calm     98% 0.0 mm
05:10 9.9 °C 10.0 °C 996.8 hPa SSE 1.8 km/h 1.8 km/h 98% 0.0 mm
05:20 10.0 °C 10.0 °C 996.8 hPa SSE 2.6 km/h 5.8 km/h 98% 0.0 mm
05:30 10.1 °C 10.0 °C 996.8 hPa SSE 2.6 km/h 2.6 km/h 98% 0.0 mm
05:40 10.1 °C 10.0 °C 996.8 hPa Calm     98% 0.0 mm
05:50 10.0 °C 10.0 °C 996.8 hPa Calm     98% 0.0 mm
06:00 10.0 °C 10.0 °C 996.8 hPa Calm     98% 0.0 mm
06:10 10.0 °C 10.0 °C 996.8 hPa Calm     98% 0.0 mm
06:20 10.2 °C 10.0 °C 996.8 hPa South 4.0 km/h 5.8 km/h 98% 0.0 mm
06:30 10.3 °C 10.0 °C 996.8 hPa Calm   6.4 km/h 97% 0.0 mm
06:40 10.3 °C 10.0 °C 996.8 hPa Calm     97% 0.0 mm
06:50 10.2 °C 10.0 °C 996.8 hPa SSE 8.7 km/h 9.0 km/h 96% 0.0 mm
07:00 10.2 °C 10.0 °C 996.8 hPa South 3.2 km/h 9.7 km/h 95% 0.0 mm
07:10 10.0 °C 9.0 °C 996.8 hPa SSE 5.0 km/h 5.8 km/h 95% 0.0 mm
07:20 9.9 °C 9.0 °C 996.8 hPa Calm   6.9 km/h 95% 0.0 mm
07:30 10.0 °C 9.0 °C 996.8 hPa Calm   4.0 km/h 95% 0.0 mm
07:40 10.0 °C 9.0 °C 996.8 hPa Calm   5.8 km/h 95% 0.0 mm
07:50 10.0 °C 9.0 °C 996.8 hPa Calm   7.2 km/h 95% 0.0 mm
07:55 10.1 °C 9.0 °C 996.8 hPa SSW 5.0 km/h 8.7 km/h 95% 0.0 mm
08:05 10.2 °C 10.0 °C 996.8 hPa Calm   6.4 km/h 95% 0.0 mm
08:10 10.3 °C 10.0 °C 996.8 hPa Calm   6.4 km/h 95% 0.0 mm
08:15 10.4 °C 10.0 °C 996.8 hPa South 4.7 km/h 6.4 km/h 95% 0.0 mm
08:20 10.4 °C 9.0 °C 996.8 hPa Calm   7.6 km/h 94% 0.0 mm
08:25 10.6 °C 10.0 °C 996.8 hPa South 8.7 km/h 8.7 km/h 94% 0.0 mm
08:30 10.7 °C 10.0 °C 996.8 hPa SSW 8.7 km/h 10.5 km/h 94% 0.0 mm
08:35 10.9 °C 10.0 °C 996.8 hPa SSW 7.9 km/h 10.5 km/h 93% 0.0 mm
08:40 10.9 °C 10.0 °C 996.8 hPa SSE 7.6 km/h 10.5 km/h 93% 0.0 mm
08:45 11.1 °C 10.0 °C 996.8 hPa South 11.6 km/h 12.6 km/h 92% 0.0 mm
08:50 11.2 °C 10.0 °C 996.8 hPa SSW 11.1 km/h 14.8 km/h 91% 0.0 mm
09:00 11.4 °C 10.0 °C 996.2 hPa SSW 9.3 km/h 13.7 km/h 90% 0.0 mm
09:05 11.5 °C 10.0 °C 996.2 hPa South 11.9 km/h 18.0 km/h 89% 0.0 mm
09:10 11.5 °C 10.0 °C 996.2 hPa SSW 11.9 km/h 18.0 km/h 89% 0.0 mm
09:20 11.6 °C 10.0 °C 996.8 hPa South 12.2 km/h 13.7 km/h 88% 0.0 mm
09:30 11.7 °C 10.0 °C 996.2 hPa South 6.9 km/h 12.6 km/h 88% 0.0 mm
09:40 11.8 °C 10.0 °C 996.2 hPa South 14.3 km/h 15.8 km/h 87% 0.0 mm
09:50 12.0 °C 10.0 °C 996.8 hPa South 12.6 km/h 15.8 km/h 85% 0.0 mm
10:00 12.0 °C 10.0 °C 996.8 hPa South 9.0 km/h 16.3 km/h 85% 0.0 mm
10:10 12.3 °C 10.0 °C 996.8 hPa SSW 9.0 km/h 16.6 km/h 84% 0.0 mm
10:20 12.6 °C 10.0 °C 996.8 hPa South 12.6 km/h 16.9 km/h 83% 0.0 mm
10:30 12.8 °C 10.0 °C 996.8 hPa SSW 9.0 km/h 17.7 km/h 83% 0.0 mm
10:40 12.9 °C 10.0 °C 996.8 hPa SSW 9.7 km/h 20.1 km/h 82% 0.0 mm
10:50 13.0 °C 10.0 °C 996.8 hPa SW 16.9 km/h 20.6 km/h 82% 0.0 mm
11:00 13.1 °C 10.0 °C 996.8 hPa South 9.0 km/h 24.5 km/h 82% 0.0 mm
11:10 13.1 °C 10.0 °C 996.8 hPa South 9.7 km/h 18.0 km/h 82% 0.0 mm
11:20 13.2 °C 11.0 °C 996.8 hPa SSW 9.0 km/h 19.5 km/h 82% 0.0 mm
11:30 13.5 °C 11.0 °C 996.8 hPa SSW 15.8 km/h 21.2 km/h 82% 0.0 mm
11:39 13.7 °C 11.0 °C 996.8 hPa South 10.1 km/h 19.8 km/h 83% 0.0 mm
11:44 13.8 °C 11.0 °C 996.8 hPa South 4.3 km/h 16.9 km/h 83% 0.0 mm
11:49 14.0 °C 11.0 °C 996.8 hPa South 15.4 km/h 19.5 km/h 82% 0.0 mm
11:54 14.3 °C 12.0 °C 996.8 hPa South 9.7 km/h 19.5 km/h 83% 0.0 mm
11:59 14.4 °C 12.0 °C 996.8 hPa South 10.5 km/h 19.8 km/h 82% 0.0 mm
12:04 14.2 °C 11.0 °C 996.8 hPa South 16.3 km/h 23.8 km/h 81% 0.0 mm
12:10 14.0 °C 11.0 °C 996.8 hPa SSW 13.7 km/h 23.8 km/h 81% 0.0 mm
12:20 13.8 °C 11.0 °C 996.8 hPa SSW 14.0 km/h 23.8 km/h 83% 0.0 mm
12:30 13.8 °C 11.0 °C 996.8 hPa SSE 16.6 km/h 21.2 km/h 84% 0.0 mm
12:35 13.8 °C 12.0 °C 996.8 hPa SSW 9.3 km/h 21.2 km/h 85% 0.0 mm
12:40 13.8 °C 12.0 °C 996.8 hPa South 13.0 km/h 20.9 km/h 85% 0.0 mm
12:50 13.6 °C 12.0 °C 996.8 hPa SSE 13.0 km/h 17.2 km/h 87% 0.0 mm
12:55 13.5 °C 12.0 °C 996.8 hPa SSW 13.7 km/h 17.2 km/h 87% 0.0 mm
13:00 13.4 °C 12.0 °C 996.8 hPa SSW 11.9 km/h 18.0 km/h 88% 0.0 mm
13:10 13.3 °C 12.0 °C 996.8 hPa SSW 11.6 km/h 23.8 km/h 89% 0.0 mm
13:20 13.0 °C 12.0 °C 996.8 hPa South 3.2 km/h 16.9 km/h 92% 0.0 mm
13:30 12.8 °C 12.0 °C 996.8 hPa SSW 9.0 km/h 17.2 km/h 94% 0.3 mm
13:35 12.9 °C 13.0 °C 996.8 hPa SSW 11.6 km/h 17.2 km/h 95% 0.3 mm
13:40 12.9 °C 13.0 °C 996.8 hPa South 10.1 km/h 13.7 km/h 96% 0.5 mm
13:50 12.9 °C 13.0 °C 996.8 hPa South 10.5 km/h 15.4 km/h 97% 0.8 mm
14:00 12.9 °C 13.0 °C 996.8 hPa SSE 7.6 km/h 15.8 km/h 98% 0.8 mm
14:10 13.0 °C 13.0 °C 996.8 hPa South 9.7 km/h 15.4 km/h 98% 1.3 mm
14:20 13.0 °C 13.0 °C 996.8 hPa South 6.9 km/h 16.3 km/h 98% 1.3 mm
14:30 13.0 °C 13.0 °C 996.8 hPa Calm   16.6 km/h 98% 1.0 mm
14:40 13.1 °C 13.0 °C 996.8 hPa South 5.8 km/h 14.0 km/h 98% 0.5 mm
14:50 13.2 °C 13.0 °C 996.8 hPa South 3.5 km/h 11.9 km/h 98% 0.5 mm
15:00 13.3 °C 13.0 °C 996.8 hPa South 4.7 km/h 12.6 km/h 98% 0.5 mm
15:10 13.2 °C 13.0 °C 996.8 hPa South 9.0 km/h 13.7 km/h 98% 0.3 mm
15:20 13.3 °C 13.0 °C 996.8 hPa SSW 4.7 km/h 11.6 km/h 98% 0.5 mm
15:30 13.2 °C 13.0 °C 996.2 hPa SSW 6.9 km/h 14.3 km/h 98% 0.5 mm
15:35 13.3 °C 13.0 °C 996.2 hPa South 6.4 km/h 12.2 km/h 98% 0.8 mm
15:40 13.2 °C 13.0 °C 996.2 hPa SSW 7.9 km/h 12.2 km/h 98% 0.8 mm
15:45 13.2 °C 13.0 °C 996.8 hPa SSW 14.0 km/h 14.0 km/h 98% 0.5 mm
15:50 13.2 °C 13.0 °C 996.8 hPa South 7.9 km/h 14.0 km/h 98% 0.5 mm
15:55 13.2 °C 13.0 °C 996.8 hPa Calm   14.0 km/h 98% 1.0 mm
16:00 13.2 °C 13.0 °C 996.8 hPa SSW 8.7 km/h 10.8 km/h 98% 1.0 mm
16:05 13.1 °C 13.0 °C 996.8 hPa SW 5.8 km/h 14.0 km/h 98% 1.0 mm
16:10 13.3 °C 13.0 °C 996.8 hPa SSW 7.9 km/h 14.0 km/h 98% 0.8 mm
16:15 13.4 °C 13.0 °C 996.8 hPa SSW 9.0 km/h 14.0 km/h 98% 0.8 mm
16:25 13.7 °C 14.0 °C 996.8 hPa Calm   10.1 km/h 98% 0.8 mm
16:30 13.8 °C 14.0 °C 996.8 hPa Calm   10.1 km/h 98% 0.8 mm
16:40 13.8 °C 14.0 °C 996.8 hPa South 8.7 km/h 12.2 km/h 98% 0.3 mm
16:45 13.8 °C 14.0 °C 996.8 hPa SW 9.0 km/h 11.9 km/h 98% 0.3 mm
16:50 13.8 °C 14.0 °C 996.8 hPa SSW 5.5 km/h 11.9 km/h 98% 0.3 mm
17:00 13.7 °C 14.0 °C 996.8 hPa South 9.7 km/h 13.7 km/h 98% 0.0 mm
17:05 13.7 °C 14.0 °C 996.8 hPa Calm   13.7 km/h 98% 0.0 mm
17:10 13.7 °C 14.0 °C 996.8 hPa SSW 4.0 km/h 11.9 km/h 98% 0.0 mm
17:20 14.0 °C 14.0 °C 996.8 hPa South 6.1 km/h 9.7 km/h 98% 0.0 mm
17:25 14.0 °C 14.0 °C 996.8 hPa SSW 8.7 km/h 10.1 km/h 98% 0.0 mm
17:30 13.8 °C 14.0 °C 996.2 hPa South 6.1 km/h 12.2 km/h 98% 0.0 mm
17:35 13.7 °C 14.0 °C 996.2 hPa South 9.7 km/h 12.2 km/h 98% 0.0 mm
17:40 13.7 °C 14.0 °C 996.2 hPa SSW 2.6 km/h 12.2 km/h 98% 0.0 mm
17:45 13.7 °C 14.0 °C 996.8 hPa Calm   12.2 km/h 98% 0.0 mm
17:50 13.7 °C 14.0 °C 996.8 hPa Calm   7.9 km/h 98% 0.0 mm
17:55 13.7 °C 14.0 °C 996.8 hPa South 6.4 km/h 6.4 km/h 98% 0.0 mm
18:00 13.6 °C 14.0 °C 996.8 hPa Calm   10.1 km/h 98% 0.0 mm
18:05 13.6 °C 14.0 °C 996.8 hPa SW 5.8 km/h 11.6 km/h 98% 0.0 mm
18:10 13.6 °C 14.0 °C 996.8 hPa Calm   11.6 km/h 98% 0.0 mm
18:15 13.5 °C 14.0 °C 996.2 hPa Calm   5.8 km/h 98% 0.0 mm
18:20 13.5 °C 14.0 °C 996.2 hPa South 1.8 km/h 5.0 km/h 98% 0.0 mm
18:30 13.3 °C 13.0 °C 996.8 hPa South 7.2 km/h 9.7 km/h 98% 0.0 mm
18:40 13.3 °C 13.0 °C 996.8 hPa SSW 5.8 km/h 9.0 km/h 98% 0.0 mm
18:50 13.1 °C 13.0 °C 997.9 hPa Calm   6.4 km/h 98% 0.0 mm
19:00 12.8 °C 13.0 °C 996.8 hPa Calm   3.2 km/h 98% 0.0 mm
19:10 12.5 °C 13.0 °C 996.8 hPa Calm     98% 0.0 mm
19:25 12.5 °C 13.0 °C 997.9 hPa Calm     98% 0.0 mm
19:30 12.5 °C 13.0 °C 996.8 hPa Calm   6.4 km/h 98% 0.0 mm
19:40 12.5 °C 13.0 °C 996.8 hPa South 4.7 km/h 7.9 km/h 98% 0.0 mm
19:50 12.6 °C 13.0 °C 997.9 hPa SSE 1.8 km/h 10.1 km/h 98% 0.0 mm
20:00 12.6 °C 13.0 °C 997.9 hPa Calm   11.9 km/h 98% 0.0 mm
20:10 12.5 °C 13.0 °C 997.9 hPa South 1.8 km/h 4.3 km/h 98% 0.0 mm
20:20 12.3 °C 13.0 °C 997.9 hPa Calm   9.7 km/h 98% 0.0 mm
20:30 12.3 °C 13.0 °C 996.8 hPa SSE 4.7 km/h 7.9 km/h 98% 0.0 mm
20:40 12.2 °C 12.0 °C 996.8 hPa SSE 9.3 km/h 9.7 km/h 98% 0.0 mm
20:50 12.1 °C 12.0 °C 996.8 hPa Calm   10.1 km/h 98% 0.0 mm
21:00 11.9 °C 12.0 °C 996.8 hPa SSW 5.0 km/h 7.2 km/h 98% 0.0 mm
21:10 11.8 °C 12.0 °C 996.8 hPa Calm   9.0 km/h 98% 0.0 mm
21:20 11.6 °C 12.0 °C 996.8 hPa Calm   1.8 km/h 98% 0.0 mm
21:30 11.4 °C 11.0 °C 996.8 hPa Calm   6.4 km/h 98% 0.0 mm
21:40 11.3 °C 11.0 °C 996.8 hPa Calm   6.4 km/h 98% 0.0 mm
21:50 11.1 °C 11.0 °C 996.8 hPa Calm   6.4 km/h 98% 0.0 mm
22:00 11.2 °C 11.0 °C 996.8 hPa WSW 9.0 km/h 11.1 km/h 98% 0.0 mm
22:10 11.1 °C 11.0 °C 996.8 hPa WSW 5.5 km/h 10.5 km/h 98% 0.0 mm
22:20 10.8 °C 11.0 °C 997.9 hPa Calm     98% 0.0 mm
22:30 10.3 °C 10.0 °C 997.9 hPa Calm     98% 0.0 mm
22:40 10.3 °C 10.0 °C 997.9 hPa Calm     98% 0.0 mm
22:50 10.0 °C 10.0 °C 996.8 hPa Calm     98% 0.0 mm
23:00 10.0 °C 10.0 °C 996.8 hPa Calm     98% 0.0 mm
23:10 9.7 °C 10.0 °C 996.8 hPa North 4.0 km/h 6.1 km/h 98% 0.0 mm
23:20 9.5 °C 10.0 °C 996.8 hPa Calm   6.9 km/h 98% 0.0 mm
23:30 9.3 °C 9.0 °C 996.8 hPa Calm   5.8 km/h 98% 0.0 mm
23:40 9.3 °C 9.0 °C 996.8 hPa Calm     98% 0.0 mm
23:50 9.3 °C 9.0 °C 996.2 hPa Calm     98% 0.0 mm
Données Historique de Météo Turbie

Mise a jour : 18/06/2018 01:45:16
Généré par Cumulus 1.9.4 (1099)